Time,TemperatureF,DewpointF,PressureIn,WindDirection,WindDirectionDegrees,WindSpeedMPH,WindSpeedGustMPH,Humidity,HourlyPrecipIn,Conditions,Clouds,dailyrainin,SoftwareType,DateUTC
2013-03-13 00:00:00,40.0,18.0,-100.00,North,-999,-999.0,-999.0,40,0.00,,,-99.99,,2013-03-13 07:00:00,
2013-03-13 01:00:00,40.0,20.0,-100.00,North,-999,-999.0,-999.0,45,0.00,,,-99.99,,2013-03-13 08:00:00,
2013-03-13 02:00:00,39.0,18.0,-100.00,North,-999,-999.0,-999.0,43,0.00,,,-99.99,,2013-03-13 09:00:00,
2013-03-13 03:00:00,39.0,18.0,-100.00,North,-999,-999.0,-999.0,43,0.00,,,-99.99,,2013-03-13 10:00:00,
2013-03-13 04:00:00,41.0,22.0,-100.00,North,-999,-999.0,-999.0,46,0.00,,,-99.99,,2013-03-13 11:00:00,
2013-03-13 05:00:00,40.0,30.0,-100.00,North,-999,-999.0,-999.0,68,0.00,,,-99.99,,2013-03-13 12:00:00,
2013-03-13 06:00:00,41.0,31.0,-100.00,North,-999,-999.0,-999.0,66,0.00,,,-99.99,,2013-03-13 13:00:00,
2013-03-13 07:00:00,38.0,31.0,-100.00,North,-999,-999.0,-999.0,75,0.00,,,-99.99,,2013-03-13 14:00:00,
2013-03-13 08:00:00,38.0,31.0,-100.00,North,-999,-999.0,-999.0,77,0.00,,,-99.99,,2013-03-13 15:00:00,
2013-03-13 09:00:00,42.0,33.0,-100.00,North,-999,-999.0,-999.0,70,0.00,,,-99.99,,2013-03-13 16:00:00,
2013-03-13 10:00:00,46.0,34.0,-100.00,North,-999,-999.0,-999.0,62,0.00,,,-99.99,,2013-03-13 17:00:00,
2013-03-13 11:00:00,47.0,34.0,-100.00,North,-999,-999.0,-999.0,61,0.00,,,-99.99,,2013-03-13 18:00:00,
2013-03-13 12:00:00,46.0,35.0,-100.00,North,-999,-999.0,-999.0,64,0.00,,,-99.99,,2013-03-13 19:00:00,
2013-03-13 13:00:00,48.0,35.0,-100.00,North,-999,-999.0,-999.0,61,0.00,,,-99.99,,2013-03-13 20:00:00,
2013-03-13 14:00:00,51.0,35.0,-100.00,North,-999,-999.0,-999.0,55,0.00,,,-99.99,,2013-03-13 21:00:00,
2013-03-13 16:00:00,50.0,34.0,-100.00,North,-999,-999.0,-999.0,55,0.00,,,-99.99,,2013-03-13 23:00:00,
2013-03-13 17:00:00,47.0,35.0,-100.00,North,-999,-999.0,-999.0,63,0.00,,,-99.99,,2013-03-14 00:00:00,
2013-03-13 18:00:00,45.0,36.0,-100.00,North,-999,-999.0,-999.0,71,0.00,,,-99.99,,2013-03-14 01:00:00,
2013-03-13 19:00:00,42.0,35.0,-100.00,North,-999,-999.0,-999.0,77,0.00,,,-99.99,,2013-03-14 02:00:00,
2013-03-13 21:00:00,41.0,36.0,-100.00,North,-999,-999.0,-999.0,81,0.00,,,-99.99,,2013-03-14 04:00:00,
2013-03-13 22:00:00,44.0,34.0,-100.00,North,-999,-999.0,-999.0,68,0.00,,,-99.99,,2013-03-14 05:00:00,
2013-03-13 23:00:00,44.0,33.0,-100.00,North,-999,-999.0,-999.0,66,0.00,,,-99.99,,2013-03-14 06:00:00,